Weather History for KETC - February, 2013

Change the Weather History Date:

Sunday, February 24, 2013

  Actual Average Record
Temperature  
Mean Temperature 49 °F -  
Max Temperature 62 °F 58 °F 81 °F (1982)
Min Temperature 36 °F 34 °F 22 °F (1976)
Degree Days  
Heating Degree Days 16    
Moisture  
Dew Point 40 °F    
Average Humidity 76    
Maximum Humidity 95    
Minimum Humidity 33    
Precipitation  
Precipitation 0.11 in - - ()
Sea Level Pressure  
Sea Level Pressure 29.90 in    
Wind  
Wind Speed 4 mph (WNW)    
Max Wind Speed 12 mph    
Max Gust Speed 16 mph    
Visibility 8 miles    
Events Rain    
Averages and records for this station are not official NWS values.
T = Trace of Precipitation, MM = Missing Value Source: NWS Daily Summary

Daily Weather History Graph

Daily Weather History Graph

Search for Another Location

Airport or City:

Trip Planner

Search our weather history database for the weather conditions in past years. The results will help you decide how hot, cold, wet, or windy it might be!

Date:

Astronomy

Feb. 24, 2013 Rise Set
Actual Time 6:46 AM EST 6:00 PM EST
Civil Twilight 6:20 AM EST 6:26 PM EST
Nautical Twilight 5:50 AM EST 6:56 PM EST
Astronomical Twilight 5:21 AM EST 7:26 PM EST
Moon 5:09 PM EST (2/24) 5:41 AM EST (2/24)
Length of Visible Light 12h 06m
Length of Day
11h 14m
Waxing Gibbous, 99% of the Moon is Illuminated
Feb 24
Waxing Gibbous
Feb 25
Full
Mar 4
Last Quarter
Mar 11
New
Mar 19
First Quarter

Hourly Weather History & Observations

Time (EST) Temp. Windchill Dew Point Humidity Pressure Visibility Wind Dir Wind Speed Gust Speed Precip Events Conditions
12:15 AM 44.2 °F 42.7 °F 42.4 °F 93% 29.83 in 7.0 mi WSW 3.5 mph - N/A   Overcast
12:35 AM 44.4 °F - 42.6 °F 93% 29.82 in 7.0 mi Calm Calm - N/A   Overcast
12:55 AM 44.6 °F 43.1 °F 42.4 °F 92% 29.83 in 7.0 mi WNW 3.5 mph - N/A   Overcast
1:35 AM 44.6 °F 43.1 °F 42.6 °F 93% 29.83 in 7.0 mi West 3.5 mph - N/A   Overcast
1:55 AM 44.6 °F - 42.8 °F 93% 29.82 in 4.0 mi Calm Calm - N/A   Drizzle
2:15 AM 44.6 °F 43.1 °F 42.8 °F 93% 29.82 in 5.0 mi SW 3.5 mph - 0.01 in   Overcast
2:35 AM 44.6 °F 43.1 °F 42.8 °F 93% 29.81 in 4.0 mi WSW 3.5 mph - 0.02 in Rain Light Rain
2:55 AM 44.6 °F 42.2 °F 42.8 °F 93% 29.79 in 5.0 mi North 4.6 mph - 0.03 in Rain Light Rain
3:15 AM 44.4 °F 42.0 °F 42.8 °F 94% 29.80 in 4.0 mi WNW 4.6 mph - 0.02 in Rain Rain
3:35 AM 44.6 °F - 42.8 °F 93% 29.78 in 4.0 mi Calm Calm - 0.04 in Rain Rain
3:55 AM 44.4 °F 42.9 °F 42.8 °F 94% 29.80 in 3.0 mi NW 3.5 mph - 0.04 in   Overcast
4:15 AM 44.4 °F 42.9 °F 42.8 °F 94% 29.79 in 2.5 mi North 3.5 mph - N/A Rain Rain
4:35 AM 44.2 °F 39.7 °F 42.8 °F 95% 29.82 in 3.0 mi NW 8.1 mph - 0.01 in Rain Rain
4:55 AM 44.2 °F 41.8 °F 42.8 °F 95% 29.80 in 5.0 mi North 4.6 mph - 0.04 in Rain Rain
5:15 AM 44.2 °F 42.7 °F 42.4 °F 93% 29.83 in 7.0 mi WNW 3.5 mph - N/A   Overcast
5:35 AM 44.4 °F 42.9 °F 42.4 °F 93% 29.83 in 7.0 mi WNW 3.5 mph - N/A Rain Light Rain
5:55 AM 44.6 °F - 42.3 °F 91% 29.82 in 10.0 mi Calm Calm - N/A   Overcast
6:15 AM 44.1 °F - 42.1 °F 93% 29.82 in 7.0 mi Calm Calm - N/A   Overcast
6:35 AM 43.7 °F 42.1 °F 41.9 °F 93% 29.84 in 3.0 mi WNW 3.5 mph - N/A   Overcast
6:55 AM 43.7 °F 42.1 °F 41.9 °F 93% 29.86 in 4.0 mi WNW 3.5 mph - N/A   Overcast
7:15 AM 43.9 °F - 42.3 °F 94% 29.87 in 5.0 mi Calm Calm - N/A   Overcast
7:55 AM 44.6 °F - 42.8 °F 93% 29.87 in 5.0 mi Calm Calm - N/A   Overcast
8:15 AM 45.3 °F 44.0 °F 43.2 °F 92% 29.88 in 5.0 mi WNW 3.5 mph - N/A   Mostly Cloudy
8:35 AM 46.8 °F - 44.1 °F 90% 29.88 in 7.0 mi WNW 4.6 mph - N/A   Mostly Cloudy
8:55 AM 47.8 °F - 44.6 °F 89% 29.90 in 10.0 mi WNW 5.8 mph - N/A   Mostly Cloudy
9:15 AM 48.4 °F - 45.0 °F 88% 29.91 in 10.0 mi WNW 8.1 mph - N/A   Mostly Cloudy
9:35 AM 49.5 °F - 45.5 °F 86% 29.91 in 10.0 mi WNW 5.8 mph - N/A   Mostly Cloudy
9:55 AM 50.4 °F - 45.5 °F 83% 29.92 in 10.0 mi WNW 6.9 mph - N/A   Overcast
10:15 AM 50.7 °F - 45.7 °F 83% 29.92 in 10.0 mi NW 4.6 mph - N/A   Overcast
10:35 AM 52.0 °F - 46.0 °F 80% 29.92 in 10.0 mi NW 6.9 mph - N/A   Overcast
10:55 AM 52.5 °F - 46.2 °F 79% 29.92 in 10.0 mi WNW 5.8 mph - N/A   Overcast
11:15 AM 53.2 °F - 46.2 °F 77% 29.92 in 10.0 mi NW 4.6 mph - N/A   Mostly Cloudy
11:35 AM 54.7 °F - 46.6 °F 74% 29.92 in 10.0 mi NNW 8.1 mph - N/A   Mostly Cloudy
11:55 AM 55.9 °F - 45.5 °F 68% 29.92 in 10.0 mi NW 8.1 mph - N/A   Scattered Clouds
12:15 PM 57.2 °F - 44.1 °F 62% 29.91 in 10.0 mi West 8.1 mph - N/A   Mostly Cloudy
12:35 PM 57.7 °F - 43.5 °F 59% 29.90 in 10.0 mi NNW 8.1 mph - N/A   Mostly Cloudy
12:55 PM 58.5 °F - 43.2 °F 57% 29.90 in 10.0 mi NW 5.8 mph - N/A   Mostly Cloudy
1:15 PM 58.5 °F - 43.2 °F 57% 29.90 in 10.0 mi NW 8.1 mph - N/A   Scattered Clouds
1:35 PM 58.5 °F - 42.4 °F 55% 29.89 in 10.0 mi NNW 8.1 mph - N/A   Clear
1:55 PM 59.5 °F - 40.3 °F 49% 29.89 in 10.0 mi NW 3.5 mph - N/A   Clear
2:15 PM 59.9 °F - 41.2 °F 50% 29.88 in 10.0 mi NNW 6.9 mph - N/A   Clear
2:35 PM 60.3 °F - 39.9 °F 47% 29.87 in 10.0 mi NW 4.6 mph - N/A   Clear
2:55 PM 60.6 °F - 39.7 °F 46% 29.87 in 10.0 mi WNW 4.6 mph - N/A   Clear
3:15 PM 60.8 °F - 38.1 °F 43% 29.87 in 10.0 mi WSW 4.6 mph - N/A   Clear
3:35 PM 61.5 °F - 36.7 °F 40% 29.87 in 10.0 mi NNW 4.6 mph - N/A   Clear
3:55 PM 62.2 °F - 36.1 °F 38% 29.87 in 10.0 mi WNW 3.5 mph - N/A   Clear
4:15 PM 62.1 °F - 34.3 °F 35% 29.87 in 10.0 mi West 5.8 mph - N/A   Clear
4:35 PM 62.1 °F - 33.1 °F 34% 29.88 in 10.0 mi West 11.5 mph 16.1 mph N/A   Clear
4:55 PM 61.7 °F - 32.5 °F 33% 29.89 in 10.0 mi West 9.2 mph - N/A   Clear
5:15 PM 60.8 °F - 32.2 °F 34% 29.90 in 10.0 mi WNW 6.9 mph - N/A   Clear
5:35 PM 59.7 °F - 32.2 °F 35% 29.90 in 10.0 mi West 6.9 mph - N/A   Clear
5:55 PM 57.9 °F - 32.7 °F 39% 29.91 in 10.0 mi WNW 3.5 mph - N/A   Clear
6:15 PM 56.3 °F - 33.1 °F 41% 29.92 in 10.0 mi Calm Calm - N/A   Clear
6:35 PM 53.8 °F - 33.6 °F 46% 29.93 in 10.0 mi Calm Calm - N/A   Clear
6:55 PM 49.5 °F - 37.0 °F 62% 29.94 in 10.0 mi Calm Calm - N/A   Clear
7:15 PM 46.0 °F - 38.1 °F 74% 29.95 in 10.0 mi Calm Calm - N/A   Clear
7:35 PM 44.2 °F 42.7 °F 38.1 °F 79% 29.95 in 10.0 mi West 3.5 mph - N/A   Clear
7:55 PM 43.3 °F 41.7 °F 37.9 °F 81% 29.96 in 10.0 mi NNW 3.5 mph - N/A   Clear
8:15 PM 42.3 °F - 37.9 °F 85% 29.98 in 10.0 mi Calm Calm - N/A   Clear
8:35 PM 41.7 °F - 38.5 °F 88% 29.99 in 10.0 mi Calm Calm - N/A   Clear
8:55 PM 41.2 °F - 37.9 °F 88% 30.00 in 10.0 mi Calm Calm - N/A   Clear
9:15 PM 40.5 °F - 38.3 °F 92% 30.00 in 10.0 mi Calm Calm - N/A   Clear
9:35 PM 39.7 °F - 37.0 °F 90% 30.00 in 10.0 mi Calm Calm - N/A   Clear
9:55 PM 38.8 °F - 36.5 °F 91% 30.01 in 10.0 mi Calm Calm - N/A   Clear
10:15 PM 38.1 °F - 36.1 °F 93% 30.00 in 10.0 mi Calm Calm - N/A   Clear
10:35 PM 37.8 °F - 35.8 °F 93% 30.00 in 10.0 mi Calm Calm - N/A   Clear
10:55 PM 36.7 °F - 34.5 °F 92% 30.00 in 10.0 mi Calm Calm - N/A   Clear
11:15 PM 36.0 °F - 34.3 °F 94% 30.01 in 5.0 mi Calm Calm - N/A   Clear
11:35 PM 38.8 °F 35.4 °F 34.0 °F 83% 30.03 in 10.0 mi North 4.6 mph - N/A   Clear
11:55 PM 42.4 °F 37.0 °F 32.7 °F 68% 30.05 in 10.0 mi NNE 9.2 mph - N/A   Clear